Regional Weather Roundup
Issued by NWS Newport/Morehead, NC

Current Version | Previous Version | Graphics & Text | Print | Product List | Glossary On
Versions: 1 2 3 4 5 6 7 8 9 10 11 12 13 14 15 16 17 18 19 20 21 22 23 24 25 26 27 28 29 30 31 32 33 34 35 36 37 38 39 40 41 42 43 44 45 46 47 48 49 50
000 ASUS42 KMHX 221522 RWRMHX WEATHER ROUNDUP FOR EASTERN NORTH CAROLINA NATIONAL WEATHER SERVICE NEWPORT/MOREHEAD CITY NC 1100 AM EDT WED OCT 22 2014 NOTE: "FAIR" INDICATES FEW OR NO CLOUDS BELOW 12,000 FEET WITH NO SIGNIFICANT WEATHER AND/OR OBSTRUCTIONS TO VISIBILITY NCZ015>017-031-032-045>047-102-103-221600- NORTH COAST CITY SKY/WX TMP DP RH WIND PRES REMARKS EDENTON CLOUDY 55 50 82 NW18G26 29.88F ELIZABETH CITY CLOUDY 57 50 77 W14G22 29.86S KITTY HAWK PTSUNNY 58 50 75 W13G22 29.83S MANTEO CLOUDY 56 48 74 NW13G21 29.85S $$ NCZ045>047-081-094-103-104-221600- CENTRAL COAST CITY SKY/WX TMP DP RH WIND PRES REMARKS FRISCO PTSUNNY 59 51 75 NW13G22 29.87S SWANQUARTER N/A 59 N/A N/A NW17 29.85S $$ NCZ095-097-098-100-101-221600- SOUTHERN COAST CITY SKY/WX TMP DP RH WIND PRES REMARKS BEAUFORT SUNNY 61 48 62 NW18 29.93R CEDAR ISLAND N/A 61 N/A N/A W14G23 29.94S JACKSONVILLE SUNNY 60 44 55 NW15 29.95F PINEY ISLAND MOSUNNY 63 47 55 NW16G24 29.90F WILMINGTON SUNNY 60 44 55 NW16 29.98S $$ NCZ011>013-027>030-043-044-078>080-089-090>093-098-221600- COASTAL PLAIN CITY SKY/WX TMP DP RH WIND PRES REMARKS AHOSKIE CLOUDY 55 48 77 NW6 29.91F CLINTON SUNNY 60 44 55 NW6 29.99S ELIZABETHTOWN SUNNY 60 42 51 N5 30.00S GOLDSBORO SUNNY 61 47 61 NW16G22 29.94F GREENVILLE MOSUNNY 59 46 63 N17G24 29.96S HAVELOCK MOSUNNY 62 47 57 NW12 29.94F KENANSVILLE SUNNY 61 42 50 NW9G17 29.98S KINSTON SUNNY 61 45 55 NW13G22 29.96S NEW BERN MOSUNNY 62 47 57 NW14G20 29.94F RICHLANDS SUNNY 61 43 51 NW8G16 29.96F ROCKY MOUNT MOSUNNY 61 45 55 NW14G26 29.96S WASHINGTON MOSUNNY 58 46 63 NW17G23 29.92S WHITEVILLE SUNNY 59 41 51 NW6 30.00F $$ AMZ130-135-150-152-154-156-158-170-250-252-270-ANZ085-086-088-633-658-670-221600- MARINE OBSERVATIONS STATION/POSITION TIME TEMP WIND PRES WAVE SWELL AIR SEA DIR/SP/G HT/PER HT/PER (UTC) (F) (DEG/KT/KT) (MB) (FT/S) (FT/S) CHESAPEAKE LIGHT 1500 56 310/ 23/ 26 1009.8 64 E VA BEACH 1500 59 69 300/ 19/ 23 1007.6 4/ 4 2/10 DUCK 1500 56 68 290/ 19/ 23 1009.3 2 E DUCK 1500 N/A 3/ 4 2/11 10 NE DUCK 1500 71 N/A 4/ 4 OREGON INLET 1500 58 67 290/ 16/ 21 1010.3 13E OREGON INLT 1500 74 N/A 4/ 5 HATTERAS CG 1500 58 70 300/ 18/ 23 1011.7 DIAMOND BUOY 1500 60 290/ 21/ 25 1010.9 4/ 5 2/10 17 S OCRACOKE NOT AVBL CAPE LOOKOUT 1500 59 310/ 16/ 19 1012.9 BEAUFORT LAB 1500 59 69 330/ 7/ 12 1012.6 30 SE NEW RIVER 1500 60 76 330/ 19/ 23 1013.1 4/ 5 2/ 9 5 SE WRIGHTSVLE 1500 56 73 360/ 17/ 19 N/A 225 S CAPE HAT 1438 78 79 260/ 17/ 19 1011.9 5/ 5 2/ 8 41 SE CHARLESTON 1500 62 79 360/ 17/ 21 1015.8 5/ 6 2/ 9 $$

USA.gov is the U.S. government's official web portal to all federal, state and local government web resources and services.